Location: East Guldeford
(50.9500°N, 0.7500°E)
Time: 16:30:07
(UTC+00:00)

USA 305 - Pass Details

Date: 12 May 2021
Orbit: 567 x 573 km, 54.0° (Epoch: 07 May)

Event Time Altitude Azimuth Distance (km) Brightness Sun altitude
Rises 20:21:28 0° 292° (WNW) 2,774 8.1 -6.6°
Reaches altitude 10° 20:23:43 10° 291° (WNW) 1,875 6.9 -6.9°
Maximum altitude 20:27:59 82° 206° (SSW) 581 2.9 -7.4°
Drops below altitude 10° 20:32:15 10° 118° (ESE) 1,872 4.9 -7.9°
Enters shadow 20:32:22 - 118° (ESE) 1,917 5.0 -7.9°
